This is the latest recevied weather packets stored in our database for station/object N7WSS. If no packets are shown the sender has not sent any weather packets the latest 10 day(s).
| Time | Temp. | Humidity | Pressure | Rain* | Wind** | Luminosity | Snow |
|---|---|---|---|---|---|---|---|
| 1777435471 | 20° C | 21% | 1013.8 hPa | 0 mm | - | - | - |
| 1777435167 | 20° C | 21% | 1013.9 hPa | 0 mm | - | - | - |
| 1777434861 | 20.56° C | 21% | 1014.1 hPa | 0 mm | - | - | - |
| 1777434560 | 20° C | 21% | 1014.2 hPa | 0 mm | - | - | - |
| 1777434258 | 20° C | 21% | 1013.9 hPa | 0 mm | - | - | - |
| 1777433955 | 20° C | 21% | 1013.9 hPa | 0 mm | - | - | - |
| 1777433652 | 20.56° C | 21% | 1013.8 hPa | 0 mm | - | - | - |
| 1777433347 | 20.56° C | 20% | 1013.9 hPa | 0 mm | - | - | - |
| 1777433043 | 21.11° C | 20% | 1013.7 hPa | 0 mm | - | - | - |
| 1777432738 | 21.11° C | 20% | 1013.8 hPa | 0 mm | - | - | - |
| 1777432434 | 21.11° C | 20% | 1013.7 hPa | 0 mm | - | - | - |
| 1777432130 | 21.11° C | 19% | 1013.8 hPa | 0 mm | - | - | - |
| 1777431824 | 21.11° C | 19% | 1013.5 hPa | 0 mm | - | - | - |
| 1777431521 | 21.11° C | 19% | 1013.5 hPa | 0 mm | - | - | - |
| 1777431218 | 21.67° C | 19% | 1013.3 hPa | 0 mm | - | - | - |
| 1777430914 | 21.67° C | 19% | 1013.2 hPa | 0 mm | - | - | - |
| 1777430610 | 22.22° C | 18% | 1012.8 hPa | 0 mm | - | - | - |
| 1777430306 | 22.78° C | 18% | 1012.8 hPa | 0 mm | - | - | - |
| 1777430006 | 22.78° C | 17% | 1012.8 hPa | 0 mm | - | - | - |
| 1777429702 | 23.33° C | 17% | 1012.7 hPa | 0 mm | - | - | - |
| 1777429398 | 23.33° C | 17% | 1012.7 hPa | 0 mm | - | - | - |
| 1777429094 | 23.33° C | 17% | 1012.6 hPa | 0 mm | - | - | - |
| 1777428791 | 23.33° C | 17% | 1012.6 hPa | 0 mm | - | - | - |
| 1777428487 | 23.89° C | 16% | 1012.4 hPa | 0 mm | - | - | - |
| 1777428183 | 23.89° C | 16% | 1012.6 hPa | 0 mm | - | - | - |
* Rain latest hour (hover to see other rain measurements)
** Current wind speed in m/s (hover to see current wind gust speed)